O3B FM7

Last updated on Fri Dec 29 2023 00:03:04 GMT+0000 (Coordinated Universal Time)

1 40080U 14038B 23361.54615161 -.00000024 00000+0 00000+0 0 9997 2 40080 0.0578 9.9279 0004083 245.5665 104.4586 5.00115970173005
UTC large
Height (km)
Speed (km/s)
/
Latitude / Longitude
Inclination (degrees)
Orbital Period (minutes)
Azimuth
Elevation
Range (km)
Doppler Factor

Next 0 passes for location: London (51.5072 / 0.1276)

Sorry there are no passes over London.
O3B FM7